TimeEST,TemperatureF,Dew PointF,Humidity,Sea Level PressureIn,VisibilityMPH,Wind Direction,Wind SpeedMPH,Gust SpeedMPH,PrecipitationIn,Events,Conditions,WindDirDegrees,DateUTC
12:21 AM,46.4,44.6,93,30.02,4.0,Calm,Calm,-,N/A,,Scattered Clouds,0,2012-12-09 05:21:00
12:36 AM,44.6,42.8,93,30.02,1.8,Calm,Calm,-,N/A,,Clear,0,2012-12-09 05:36:00
12:39 AM,44.6,42.8,93,30.02,1.2,Calm,Calm,-,N/A,,Partly Cloudy,0,2012-12-09 05:39:00
12:42 AM,44.6,42.8,93,30.02,0.8,Calm,Calm,-,N/A,,Mist,0,2012-12-09 05:42:00
12:52 AM,44.1,42.1,93,30.03,1.5,Calm,Calm,-,N/A,,Partly Cloudy,0,2012-12-09 05:52:00
12:54 AM,44.6,42.8,93,30.03,3.0,Calm,Calm,-,N/A,,Partly Cloudy,0,2012-12-09 05:54:00
1:52 AM,46.0,44.1,93,30.03,6.0,Calm,Calm,-,N/A,,Overcast,0,2012-12-09 06:52:00
2:52 AM,45.0,44.1,97,30.06,5.0,WNW,3.5,-,N/A,,Mostly Cloudy,300,2012-12-09 07:52:00
3:09 AM,44.6,42.8,93,30.06,5.0,Calm,Calm,-,N/A,,Overcast,0,2012-12-09 08:09:00
3:52 AM,46.0,44.1,93,30.06,5.0,WNW,3.5,-,N/A,,Overcast,300,2012-12-09 08:52:00
4:07 AM,46.4,44.6,93,30.06,5.0,West,4.6,-,N/A,,Overcast,280,2012-12-09 09:07:00
4:52 AM,46.0,44.1,93,30.06,5.0,Calm,Calm,-,N/A,,Overcast,0,2012-12-09 09:52:00
5:13 AM,46.4,44.6,93,30.07,4.0,Calm,Calm,-,N/A,,Overcast,0,2012-12-09 10:13:00
5:31 AM,46.4,44.6,93,30.07,1.5,NNW,3.5,-,N/A,,Overcast,330,2012-12-09 10:31:00
5:33 AM,46.4,44.6,93,30.08,1.0,NW,3.5,-,N/A,,Mist,320,2012-12-09 10:33:00
5:38 AM,46.4,44.6,93,30.08,0.5,NW,5.8,-,N/A,Fog,Fog,320,2012-12-09 10:38:00
5:49 AM,48.2,44.6,87,30.08,0.8,NW,3.5,-,N/A,,Mist,310,2012-12-09 10:49:00
5:52 AM,48.0,46.0,93,30.09,0.5,NW,3.5,-,N/A,Fog,Fog,320,2012-12-09 10:52:00
6:07 AM,48.2,46.4,93,30.08,0.5,Calm,Calm,-,N/A,Fog,Fog,0,2012-12-09 11:07:00
6:52 AM,48.9,46.9,93,30.10,0.5,North,5.8,-,N/A,Fog,Fog,10,2012-12-09 11:52:00
7:33 AM,48.2,48.2,100,30.13,0.2,Calm,Calm,-,N/A,Fog,Fog,0,2012-12-09 12:33:00
7:52 AM,48.9,48.0,97,30.15,0.2,North,3.5,-,N/A,Fog,Fog,350,2012-12-09 12:52:00
8:52 AM,48.9,46.9,93,30.15,0.5,North,8.1,-,N/A,Fog,Fog,360,2012-12-09 13:52:00
9:52 AM,50.0,48.0,93,30.16,0.5,NNE,9.2,-,N/A,Fog,Fog,30,2012-12-09 14:52:00
10:52 AM,50.0,48.9,96,30.15,1.5,NE,8.1,-,N/A,,Overcast,40,2012-12-09 15:52:00
11:33 AM,50.0,48.2,94,30.13,4.0,NE,6.9,-,N/A,,Overcast,40,2012-12-09 16:33:00
11:52 AM,51.1,48.9,92,30.13,4.0,ENE,6.9,-,N/A,,Overcast,60,2012-12-09 16:52:00
12:52 PM,51.1,48.9,92,30.12,3.0,East,5.8,-,N/A,,Overcast,90,2012-12-09 17:52:00
1:52 PM,51.1,48.9,92,30.11,1.2,East,6.9,-,0.00,,Light Drizzle,80,2012-12-09 18:52:00
2:52 PM,50.0,48.9,96,30.11,1.0,East,4.6,-,0.00,,Light Drizzle,80,2012-12-09 19:52:00
3:52 PM,50.0,48.9,96,30.11,0.8,East,5.8,-,0.00,,Light Drizzle,90,2012-12-09 20:52:00
4:21 PM,50.0,48.2,94,30.11,0.5,East,4.6,-,0.00,Fog,Drizzle,80,2012-12-09 21:21:00
4:52 PM,50.0,48.0,93,30.11,0.5,East,3.5,-,0.01,Fog,Drizzle,90,2012-12-09 21:52:00
5:52 PM,50.0,48.9,96,30.11,0.5,Calm,Calm,-,0.00,Fog,Fog,0,2012-12-09 22:52:00
6:52 PM,50.0,48.9,96,30.09,0.5,Calm,Calm,-,0.03,Fog-Rain,Light Rain,0,2012-12-09 23:52:00
7:19 PM,50.0,48.2,94,30.08,0.2,Calm,Calm,-,0.00,Fog,Fog,0,2012-12-10 00:19:00
7:52 PM,50.0,48.9,96,30.08,0.2,Calm,Calm,-,0.00,Fog,Fog,0,2012-12-10 00:52:00
7:59 PM,51.8,48.2,88,30.07,0.2,Calm,Calm,-,N/A,Fog,Fog,0,2012-12-10 00:59:00
8:34 PM,51.8,50.0,94,30.06,0.2,East,3.5,-,0.00,Fog,Fog,100,2012-12-10 01:34:00
8:52 PM,51.1,50.0,96,30.05,0.2,Calm,Calm,-,0.00,Fog,Fog,0,2012-12-10 01:52:00
9:52 PM,50.0,48.9,96,30.02,0.2,Calm,Calm,-,N/A,Fog,Fog,0,2012-12-10 02:52:00
10:52 PM,50.0,48.9,96,30.01,0.2,Calm,Calm,-,0.01,Fog-Rain,Light Rain,0,2012-12-10 03:52:00
11:31 PM,51.8,48.2,88,29.99,0.5,Calm,Calm,-,0.05,Fog-Rain,Light Rain,0,2012-12-10 04:31:00
11:40 PM,51.8,48.2,88,29.99,0.8,Calm,Calm,-,0.05,,Mist,0,2012-12-10 04:40:00
11:52 PM,51.1,48.9,92,29.99,0.5,Calm,Calm,-,0.05,Fog,Fog,0,2012-12-10 04:52:00